Arlanda (ARN/ESSA)




Flight Aircraft Arriving
CPX1152 B738
EBLG - Liège Airport
Belgium Liege, Belgium
Flight Aircraft Departing
CPX1151 B738
EBLG - Liège Airport
Belgium Liege, Belgium
Airport Information
Location: Stockholm, SE
Coordinates: 59.6519 / 17.9186
Elevation:
Time Offset:
Local Time:
UTC Time:
Jet A Price: $/lbs

Current Weather
METAR: ESSA 291550Z 29010KT CAVOK 04/M12 Q1023 R88/09//95 NOSIG
TAF: TAF ESSA 291130Z 2912/3012 32010KT CAVOK BECMG 2916/2918 25005KT PROB40 2922/3004 4000 SHSN BKN025CB BECMG 2923/3001 35012KT PROB40 3009/3012 36015G25KT 4000 -SHSNGS BKN030TCU

Recent Arrivals
Date Flight Type Depart
12/02/2019 CPX1151 B738 Liège Airport (EBLG)
Recent Departures

Warning: Invalid argument supplied for foreach() in /var/www/capitollogistics/lib/skins/urban/hub/aptview.php on line 268
Date Flight Type Arrive